| time (UTC) | temp F | wind direction | speed MPH | gust MPH | rain 1hr in | rain 24hr in | rain mn in | humidity % | barometer mb |
| 20260505193048 | 49 | 0 | 0.0 | 0.0 | 0.06 | 0.14 | 0.14 | 10 | 1010.8 |
| 20260505192041 | 50 | 0 | 0.0 | 0.0 | 0.06 | 0.14 | 0.14 | 10 | 1010.8 |
| 20260505191044 | 50 | 0 | 0.0 | 0.0 | 0.06 | 0.13 | 0.13 | 10 | 1010.7 |
| 20260505185044 | 50 | 0 | 0.0 | 0.0 | 0.06 | 0.12 | 0.12 | 10 | 1010.7 |
| 20260505184044 | 50 | 0 | 0.0 | 0.0 | 0.05 | 0.11 | 0.11 | 10 | 1010.7 |
| 20260505183042 | 50 | 0 | 0.0 | 0.0 | 0.04 | 0.09 | 0.09 | 10 | 1010.7 |
| 20260505182042 | 50 | 0 | 0.0 | 0.0 | 0.03 | 0.09 | 0.09 | 10 | 1010.7 |
| 20260505181041 | 50 | 0 | 0.0 | 0.0 | 0.02 | 0.08 | 0.08 | 10 | 1010.7 |
| 20260505180044 | 50 | 0 | 0.0 | 0.0 | 0.02 | 0.08 | 0.08 | 10 | 1010.7 |
| 20260505175040 | 50 | 0 | 0.0 | 0.0 | 0.02 | 0.07 | 0.07 | 99 | 1010.7 |
| 20260505174041 | 50 | 0 | 0.0 | 0.0 | 0.01 | 0.06 | 0.06 | 99 | 1010.7 |
| 20260505173044 | 50 | 0 | 0.0 | 0.0 | 0.01 | 0.06 | 0.06 | 99 | 1010.7 |
| 20260505172039 | 50 | 0 | 0.0 | 0.0 | 0.00 | 0.06 | 0.06 | 99 | 1010.7 |
| 20260505171041 | 50 | 0 | 0.0 | 0.0 | 0.00 | 0.06 | 0.06 | 99 | 1010.7 |
| 20260505165043 | 50 | 0 | 0.0 | 0.0 | 0.00 | 0.06 | 0.06 | 99 | 1010.8 |
| 20260505163046 | 50 | 0 | 0.0 | 0.0 | 0.00 | 0.06 | 0.06 | 98 | 1010.8 |
| 20260505162041 | 51 | 0 | 0.0 | 0.0 | 0.00 | 0.06 | 0.06 | 98 | 1010.8 |
| 20260505152039 | 51 | 0 | 0.0 | 0.0 | 0.00 | 0.09 | 0.06 | 98 | 1011.0 |
| 20260505151037 | 51 | 0 | 0.0 | 0.0 | 0.00 | 0.10 | 0.06 | 98 | 1011.1 |
| 20260505125037 | 50 | 0 | 0.0 | 0.0 | 0.00 | 0.23 | 0.06 | 10 | 1011.8 |
| 20260505124039 | 51 | 0 | 0.0 | 0.0 | 0.00 | 0.23 | 0.06 | 10 | 1011.8 |
| 20260505123037 | 51 | 0 | 0.0 | 0.0 | 0.00 | 0.23 | 0.06 | 10 | 1011.8 |
| 20260505121038 | 51 | 0 | 0.0 | 0.0 | 0.00 | 0.23 | 0.06 | 10 | 1011.8 |
| 20260505120037 | 51 | 0 | 0.0 | 0.0 | 0.00 | 0.23 | 0.06 | 10 | 1011.8 |
| 20260505115035 | 51 | 0 | 0.0 | 0.0 | 0.00 | 0.23 | 0.06 | 10 | 1011.9 |
| 20260505114040 | 51 | 0 | 0.0 | 0.0 | 0.00 | 0.23 | 0.06 | 10 | 1011.9 |
| 20260505113036 | 51 | 0 | 0.0 | 0.0 | 0.00 | 0.23 | 0.06 | 10 | 1012.0 |
| 20260505112041 | 51 | 0 | 0.0 | 0.0 | 0.00 | 0.23 | 0.06 | 10 | 1012.0 |
| 20260505111039 | 51 | 0 | 0.0 | 0.0 | 0.00 | 0.23 | 0.06 | 10 | 1012.1 |
| 20260505102034 | 51 | 0 | 0.0 | 0.0 | 0.01 | 0.23 | 0.06 | 10 | 1012.1 |
| 20260505101038 | 51 | 0 | 0.0 | 0.0 | 0.01 | 0.23 | 0.06 | 10 | 1012.1 |
| 20260505100036 | 51 | 0 | 0.0 | 0.0 | 0.01 | 0.23 | 0.06 | 10 | 1012.2 |
| 20260505095037 | 51 | 0 | 0.0 | 0.0 | 0.01 | 0.23 | 0.06 | 10 | 1012.2 |
| 20260505094037 | 51 | 0 | 0.0 | 0.0 | 0.01 | 0.23 | 0.06 | 10 | 1012.2 |
| 20260505093038 | 51 | 0 | 0.0 | 0.0 | 0.02 | 0.23 | 0.06 | 10 | 1012.2 |
| 20260505091039 | 52 | 0 | 0.0 | 0.0 | 0.02 | 0.22 | 0.05 | 10 | 1012.3 |
| 20260505090038 | 52 | 0 | 0.0 | 0.0 | 0.02 | 0.22 | 0.05 | 10 | 1012.3 |
| 20260505085033 | 52 | 0 | 0.0 | 0.0 | 0.02 | 0.22 | 0.05 | 10 | 1012.3 |
| 20260505084036 | 52 | 0 | 0.0 | 0.0 | 0.02 | 0.22 | 0.05 | 10 | 1012.3 |
| 20260505083038 | 52 | 0 | 0.0 | 0.0 | 0.02 | 0.22 | 0.05 | 10 | 1012.3 |
| 20260505081038 | 52 | 0 | 0.0 | 0.0 | 0.00 | 0.20 | 0.02 | 10 | 1012.3 |
| 20260505075036 | 52 | 0 | 0.0 | 0.0 | 0.00 | 0.20 | 0.02 | 10 | 1012.3 |
| 20260505074040 | 52 | 0 | 0.0 | 0.0 | 0.00 | 0.20 | 0.02 | 10 | 1012.2 |
| 20260505073036 | 53 | 0 | 0.0 | 0.0 | 0.00 | 0.20 | 0.02 | 10 | 1012.2 |
| 20260505072041 | 53 | 0 | 0.0 | 0.0 | 0.00 | 0.20 | 0.02 | 10 | 1012.2 |
| 20260505071037 | 53 | 0 | 0.0 | 0.0 | 0.00 | 0.20 | 0.02 | 10 | 1012.2 |
| 20260505070035 | 53 | 0 | 0.0 | 0.0 | 0.00 | 0.20 | 0.02 | 10 | 1012.2 |
| 20260505064037 | 53 | 0 | 0.0 | 0.0 | 0.00 | 0.20 | 0.02 | 10 | 1012.3 |
| 20260505063033 | 53 | 0 | 0.0 | 0.0 | 0.01 | 0.20 | 0.02 | 10 | 1012.3 |
| 20260505062035 | 53 | 0 | 0.0 | 0.0 | 0.01 | 0.20 | 0.02 | 10 | 1012.3 |
| 20260505061037 | 53 | 0 | 0.0 | 0.0 | 0.02 | 0.20 | 0.02 | 10 | 1012.4 |
| 20260505055037 | 53 | 0 | 0.0 | 0.0 | 0.02 | 0.20 | 0.02 | 10 | 1012.4 |
| 20260505054038 | 53 | 0 | 0.0 | 0.0 | 0.02 | 0.20 | 0.02 | 10 | 1012.4 |
| 20260505053036 | 54 | 0 | 0.0 | 0.0 | 0.02 | 0.20 | 0.02 | 10 | 1012.4 |
| 20260505052036 | 54 | 0 | 0.0 | 0.0 | 0.02 | 0.19 | 0.02 | 10 | 1012.3 |
| 20260505051039 | 54 | 0 | 0.0 | 0.0 | 0.02 | 0.19 | 0.02 | 10 | 1012.3 |
| 20260505041036 | 53 | 0 | 0.0 | 0.0 | 0.00 | 0.17 | 0.00 | 10 | 1012.4 |
| 20260505040037 | 53 | 0 | 0.0 | 0.0 | 0.00 | 0.17 | 0.00 | 10 | 1012.4 |
| 20260505035040 | 53 | 0 | 0.0 | 0.0 | 0.00 | 0.17 | 0.00 | 10 | 1012.4 |
| 20260505034037 | 53 | 0 | 0.0 | 0.0 | 0.00 | 0.17 | 0.00 | 10 | 1012.4 |
| 20260505033039 | 53 | 0 | 0.0 | 0.0 | 0.00 | 0.17 | 0.00 | 10 | 1012.5 |
| 20260505032039 | 53 | 0 | 0.0 | 0.0 | 0.00 | 0.17 | 0.00 | 10 | 1012.6 |
| 20260505031038 | 53 | 0 | 0.0 | 0.0 | 0.00 | 0.17 | 0.00 | 10 | 1012.7 |
| 20260505030037 | 53 | 0 | 0.0 | 0.0 | 0.00 | 0.17 | 0.00 | 10 | 1012.8 |
| 20260505025037 | 53 | 0 | 0.0 | 0.0 | 0.00 | 0.17 | 0.00 | 10 | 1012.8 |
| 20260505024039 | 53 | 0 | 0.0 | 0.0 | 0.00 | 0.17 | 0.00 | 10 | 1012.8 |
| 20260505022039 | 53 | 0 | 0.0 | 0.0 | 0.00 | 0.17 | 0.00 | 10 | 1012.8 |
| 20260505021039 | 53 | 0 | 0.0 | 0.0 | 0.00 | 0.17 | 0.00 | 10 | 1012.9 |
| 20260505020039 | 53 | 0 | 0.0 | 0.0 | 0.00 | 0.17 | 0.00 | 10 | 1012.9 |
| 20260505015038 | 53 | 0 | 0.0 | 0.0 | 0.00 | 0.17 | 0.00 | 10 | 1012.8 |
| 20260505014037 | 53 | 0 | 0.0 | 0.0 | 0.00 | 0.17 | 0.00 | 10 | 1012.8 |
| 20260505013036 | 53 | 0 | 0.0 | 0.0 | 0.00 | 0.17 | 0.00 | 10 | 1012.9 |
| 20260505012037 | 53 | 0 | 0.0 | 0.0 | 0.00 | 0.17 | 0.00 | 10 | 1013.0 |
| 20260505011038 | 53 | 0 | 0.0 | 0.0 | 0.00 | 0.17 | 0.00 | 10 | 1013.1 |
| 20260505010038 | 53 | 0 | 0.0 | 0.0 | 0.00 | 0.17 | 0.00 | 10 | 1013.2 |
| 20260505005039 | 53 | 0 | 0.0 | 0.0 | 0.00 | 0.17 | 0.00 | 10 | 1013.3 |
| 20260505004037 | 53 | 0 | 0.0 | 0.0 | 0.00 | 0.17 | 0.00 | 10 | 1013.4 |
| 20260505003037 | 53 | 0 | 0.0 | 0.0 | 0.00 | 0.17 | 0.00 | 10 | 1013.5 |
| 20260505002036 | 53 | 0 | 0.0 | 0.0 | 0.00 | 0.17 | 0.00 | 10 | 1013.5 |
| 20260505001038 | 53 | 0 | 0.0 | 0.0 | 0.00 | 0.17 | 0.00 | 10 | 1013.5 |
| 20260505000040 | 53 | 0 | 0.0 | 0.0 | 0.00 | 0.17 | 0.00 | 10 | 1013.5 |
| 20260504235044 | 53 | 0 | 0.0 | 0.0 | 0.00 | 0.17 | 0.00 | 10 | 1013.6 |
| 20260504234043 | 54 | 0 | 0.0 | 0.0 | 0.00 | 0.17 | 0.00 | 10 | 1013.7 |
| 20260504233043 | 54 | 0 | 0.0 | 0.0 | 0.00 | 0.17 | 0.00 | 10 | 1013.8 |
| 20260504232044 | 54 | 0 | 0.0 | 0.0 | 0.00 | 0.17 | 0.00 | 10 | 1013.8 |
| 20260504231045 | 54 | 0 | 0.0 | 0.0 | 0.00 | 0.17 | 0.00 | 99 | 1013.9 |
| 20260504225045 | 54 | 0 | 0.0 | 0.0 | 0.00 | 0.17 | 0.00 | 99 | 1014.1 |
| 20260504224045 | 54 | 0 | 0.0 | 0.0 | 0.00 | 0.17 | 0.00 | 99 | 1014.2 |
| 20260504223043 | 54 | 0 | 0.0 | 0.0 | 0.00 | 0.17 | 0.00 | 99 | 1014.3 |
| 20260504222044 | 54 | 0 | 0.0 | 0.0 | 0.00 | 0.17 | 0.00 | 99 | 1014.4 |
| 20260504221046 | 54 | 0 | 0.0 | 0.0 | 0.00 | 0.17 | 0.00 | 99 | 1014.4 |
| 20260504220041 | 54 | 0 | 0.0 | 0.0 | 0.00 | 0.17 | 0.00 | 98 | 1014.5 |
| 20260504215049 | 54 | 0 | 0.0 | 0.0 | 0.00 | 0.17 | 0.17 | 98 | 1014.6 |
| 20260504214049 | 54 | 0 | 0.0 | 0.0 | 0.00 | 0.17 | 0.17 | 98 | 1014.7 |
| 20260504213047 | 54 | 0 | 0.0 | 0.0 | 0.00 | 0.17 | 0.17 | 98 | 1014.8 |
| 20260504212050 | 54 | 0 | 0.0 | 0.0 | 0.00 | 0.17 | 0.17 | 98 | 1014.7 |
| 20260504211048 | 54 | 0 | 0.0 | 0.0 | 0.00 | 0.17 | 0.17 | 97 | 1014.8 |
| 20260504205049 | 55 | 0 | 0.0 | 0.0 | 0.00 | 0.17 | 0.17 | 96 | 1014.8 |
| 20260504204048 | 55 | 0 | 0.0 | 0.0 | 0.00 | 0.17 | 0.17 | 95 | 1014.9 |
| 20260504203050 | 55 | 0 | 0.0 | 0.0 | 0.00 | 0.17 | 0.17 | 96 | 1014.9 |
| 20260504202054 | 55 | 0 | 0.0 | 0.0 | 0.00 | 0.17 | 0.17 | 95 | 1014.9 |
| 20260504200049 | 55 | 0 | 0.0 | 0.0 | 0.00 | 0.17 | 0.17 | 95 | 1014.9 |
| 20260504195047 | 56 | 0 | 0.0 | 0.0 | 0.00 | 0.17 | 0.17 | 95 | 1014.8 |